Welcome to the New NWS' Forecast!
Most changes are behind the scenes, but click here for differences you might notice.
Latest weather observations around

Charleston, Charleston Air Force Base (KCHS)

Using English Units (Switch to International System of Units)
Date/ Time (EDT) Wind (mph) Vis. (mi) Weather Sky Cond. Temp (°F) Rel. Humidity Wind Chill (°F) Heat Index (°F) Pressure Precip. (in)
Air Dwpt 6 hour Altimeter (inHg) Sea level (inHg) 1 hr 3 hr 6 hr
Max Min
Aug 14 03:56 SSW 5 10 Partly Cloudy FEW040 SCT250 75 73     94%   77 29.99 29.99      
Aug 14 02:56 S 5 8 Patchy Fog SCT250 75 74     96%   77 29.99 29.98      
Aug 14 01:56 S 3 8 Partly Cloudy SCT250 77 75     94%   79 29.99 29.99      
Aug 14 00:56 WSW 5 8 Partly Cloudy FEW040 SCT250 78 75     90%   80 29.99 29.99      
Aug 13 23:56 WSW 7 8 Partly Cloudy FEW030 SCT250 80 77     90%   86 30 30      
Aug 13 22:56 SW 5 7 Partly Cloudy FEW030 FEW050 SCT250 80 78     94%   86 30 29.99      
Aug 13 21:56 SSW 8 9 Partly Cloudy FEW020 FEW050 SCT250 81 79     94%   89 29.99 29.98      
Aug 13 20:56 SSW 9 10 Partly Cloudy FEW020 SCT250 81 79     94%   89 29.98 29.98      
Aug 13 19:56 SSW 11 10 Mostly Cloudy FEW020 BKN250 83 77     82%   92 29.96 29.96      
Aug 13 18:56 SSW 11 10 Mostly Cloudy SCT025 SCT120 BKN250 86 78     77%   98 29.95 29.95      
Aug 13 17:56 SSW 11 10 Mostly Cloudy FEW025 BKN250 88 78     73%   102 29.95 29.95      
Aug 13 16:56   10 Mostly Cloudy FEW025 SCT120 BKN250 89 78     70%   103 29.95 29.95      
Aug 13 15:56 SSW 11 10 Mostly Cloudy SCT025 SCT030 BKN120 87 78     75%   100 29.96 29.96      
Aug 13 14:56 SSW 9 10 Mostly Cloudy SCT020 SCT120 BKN200 88 78     73%   102 29.98 29.98      
Aug 13 13:56 S 10 10 Mostly Cloudy SCT022 SCT120 BKN200 88 78     73%   102 30 29.99      
Aug 13 12:56 SSW 11 10 Mostly Cloudy SCT020 BKN050 BKN200 87 79     77%   101 30.01 30.01      
Aug 13 11:56 SSW 10 10 Mostly Cloudy FEW030 SCT050 BKN200 87 78     75%   100 30.02 30.02      
Aug 13 10:56 SSW 8 10 Mostly Cloudy FEW020 SCT050 BKN200 86 77     75%   97 30.03 30.03      
Aug 13 09:56 SW 6 10 Mostly Cloudy FEW050 SCT120 BKN200 84 77     80%   94 30.03 30.03      
Aug 13 07:56 SSW 6 10 Mostly Cloudy FEW045 SCT120 BKN200 80 78     94%   86 30.01 30.01      
Aug 13 06:56 Calm 7 Mostly Cloudy FEW045 SCT120 BKN200 77 76     96%   79 30 30      
Aug 13 02:56 WSW 5 10 Partly Cloudy SCT060 80 78     94%   86 30 29.99      
Aug 12 23:56 SSW 9 10 Clear CLR 81 77     88%   88 30.01 30.01      
Aug 12 22:56 SSW 8 10 Mostly Clear FEW020 80 77     90%   86 30 30      
Aug 12 18:56 S 8 10 Mostly Clear FEW100 FEW250 86 77     75%   97 29.96 29.96      
Aug 12 16:43 WNW 3 10 Mostly Cloudy FEW030 SCT060 BKN250 84 75     74%   92 29.97   0    
Aug 12 14:56 S 5 10 Mostly Cloudy FEW035 SCT100 BKN250 85 77     77%   95 30 29.99 0    
Aug 12 13:56 SSW 5 10 Light Rain BKN035 BKN050 OVC070 80 76     87%   85 30.02 30.01 0   0
Notice The following observation data may not be complete
Aug 12 13:16   3 Thunderstorms and Rain and Fog/Mist BKN035 BKN050 OVC070          %         0    
Notice The following observation data may not be complete
Aug 12 13:14 S 8 1.5 Thunderstorms and Rain and Fog/Mist BKN035 BKN050 OVC110   72      %     30.02   0    
Aug 12 12:26 S 7 10 Mostly Cloudy BKN037 BKN055 89 76     65%   100 30.02        
Aug 12 07:56 SSW 5 10 Partly Cloudy SCT009 SCT070 80 79     97%   87 30 30      
Aug 12 07:39 SSW 3 10 Mostly Cloudy BKN008 80 79     97%   87 30        
Aug 12 04:56 Calm 10 Mostly Clear FEW030 FEW200 79 77     94%   83 29.96 29.96      
Aug 12 03:56 SSW 5 10 Partly Cloudy FEW040 SCT250 78 77     96%   81 29.96 29.96      
Aug 12 01:56 SSW 6 10 Partly Cloudy FEW040 SCT250 79 78     97%   83 29.97 29.97      
Aug 11 17:56 S 8 10 Partly Cloudy FEW038 SCT250 86 75     70%   95 29.91 29.91      
Aug 11 16:56 S 15 10 Mostly Clear FEW035 FEW250 90 75     62%   101 29.91 29.91      
Aug 11 13:56 S 10 10 Partly Cloudy SCT033 SCT060 90 77     66%   103 29.95 29.95     0
Aug 11 10:56 Calm 10 Partly Cloudy FEW025 FEW060 SCT150 82 76     82%   89 29.98 29.98   0  
Aug 11 09:21 SE 3 10 Mostly Cloudy SCT023 BKN050 77 75     94%   79 29.97   0    
Notice The following observation data may not be complete
Aug 11 09:06   8 Light Rain BKN028 BKN045 OVC060          %         0    
Aug 11 08:59 Calm 2 Thunderstorms and Rain and Fog/Mist BKN028 BKN045 OVC060 76 74     94%   78 29.97   0    
Aug 11 08:23 WSW 7 6 Thunderstorms and Rain and Fog/Mist BKN048 OVC070 77 74     90%   79 29.96   0    
Aug 11 06:56 W 3 10 Partly Cloudy FEW050 FEW100 SCT250 78 74     87%   80 29.93 29.93      
May 15 11:56 SSE 17 10 Mostly Cloudy SCT025 BKN035 BKN100 82 71     69%   86 30.05 30.04      
May 15 04:52 SE 8 10 Clear   75 72     89%   77 30        
May 14 20:56 S 7 10 Mostly Cloudy SCT075 BKN200 75 68     79%   76 30.04 30.04      
May 14 13:56 SSE 9 10 Mostly Cloudy SCT035 BKN050 BKN200 85 70     61%   89 30.06 30.06      
May 14 11:56 3 10 Mostly Cloudy BKN030 BKN200 81 68     65%   84 30.09 30.09      
May 14 04:56 Calm 8 Fog FEW002 FEW250 70 68     93%     30.04 30.03      
May 13 08:56 SSW 9 10 Clear CLR 78 69     74%   79 30.12 30.11      
May 13 00:56 S 6 10 Clear CLR 71 69     93%   72 30.12 30.11      
May 12 06:56 Calm 6 Fog FEW040 69 67     93%     30.12 30.11      
May 12 02:56 S 3 10 Clear CLR 66 64     93%       30.1      
May 12 01:56 Calm 10 Clear CLR 70 65     84%     30.11 30.11      
May 11 15:56 N 11 10 Mostly Clear FEW070 93 55     28%   91 30.03 30.03      
May 11 08:56 NW 7 10 Clear CLR 75 63     66%   75   30.07      
Jun 11 23:56 Calm 10 Mostly Cloudy BKN200 72 66     82%   73 30.19 30.19      
Jun 11 19:56 SSE 6 10 Mostly Cloudy FEW150 BKN220 77 63     62%   77 30.18 30.18      
Jun 10 22:56 SSE 6 10 Partly Cloudy SCT250 74 69     85%   75 30.17 30.17      
Jun 10 07:56 Calm 10 Mostly Clear FEW080 73 67     81%   74 30.1 30.09      
Jun 09 14:56 S 10 10 Mostly Cloudy BKN045 BKN250 84 65     53%   86 29.96 29.96      
Jun 09 08:56 SSE 5 10 Mostly Clear FEW250 71 62     73%   71 29.99 29.99      
Jun 08 21:56 E 6 10 Clear CLR 68 60     76%     29.88 29.88      
Notice The following observation data may not be complete
Jun 08 20:56   10 Clear CLR          %              
Jun 08 16:56 NNE 10 10 Partly Cloudy SCT040 76 56     50%   76 29.81 29.81      
Jun 08 08:15 N 14 2 Heavy Rain and Fog/Mist SCT010 BKN015 OVC035 61 59     93%     29.83   0    
Jun 07 18:56   4 Rain and Fog/Mist SCT011 SCT020 OVC050 66 63     90%     29.8 29.8 0    
Jun 07 14:56 NNE 14 10 Cloudy BKN010 BKN015 OVC025 70 67     90%     29.79 29.79 0    
Notice The following observation data may not be complete
Jun 07 14:33   10 Cloudy BKN010 BKN015 OVC020          %         0    
Jun 07 10:37 N 6 1.5 Heavy Rain and Fog/Mist FEW007 BKN025 OVC065 70 68     93%     29.79   0    
Jun 06 02:56 SW 9 10 Mostly Cloudy FEW050 BKN120 73 70     90%   74 29.78 29.78 0    
Jun 05 21:56 WSW 9 8 Thunderstorms and Rain SCT030 BKN045 OVC070 73 70     90%   74 29.81 29.81 0    
Jun 05 16:56   10 Thunderstorms and Rain SCT030 BKN060 BKN090 76 72     88%   77 29.78 29.78 0 0  
Jun 05 16:04 W 7 10 Mostly Cloudy SCT030 BKN045 BKN250 79 72     79%   82 29.75   0